owner,sensor,date,latitude,longitude,vertical_datum,sea_water_temperature,qcFlag 
COMPS,ioos:station:USF.COMPS:C10:1,2012-04-14T11:00:00Z,27.1690,-82.9260,-1.0,23.9,2 
COMPS,ioos:station:USF.COMPS:C10:1,2012-04-15T10:00:00Z,27.1690,-82.9260,-1.0,23.8,2 
COMPS,ioos:station:USF.COMPS:C10:1,2012-04-15T11:00:00Z,27.1690,-82.9260,-1.0,23.7,2 
COMPS,ioos:station:USF.COMPS:C10:1,2012-04-16T09:00:00Z,27.1690,-82.9260,-1.0,23.7,2 
COMPS,ioos:station:USF.COMPS:C10:1,2012-04-16T10:00:00Z,27.1690,-82.9260,-1.0,23.7,2 
COMPS,ioos:station:USF.COMPS:C10:1,2012-04-16T11:00:00Z,27.1690,-82.9260,-1.0,23.7,2 
COMPS,ioos:station:USF.COMPS:C10:1,2012-04-17T11:00:00Z,27.1690,-82.9260,-1.0,23.8,2 
COMPS,ioos:station:USF.COMPS:C10:1,2012-04-18T00:00:00Z,27.1690,-82.9260,-1.0,24.1,2 
COMPS,ioos:station:USF.COMPS:C10:1,2012-04-18T10:00:00Z,27.1690,-82.9260,-1.0,23.9,2 
COMPS,ioos:station:USF.COMPS:C10:1,2012-04-22T04:00:00Z,27.1690,-82.9260,-1.0,24.1,2 
COMPS,ioos:station:USF.COMPS:C10:1,2012-04-22T05:00:00Z,27.1690,-82.9260,-1.0,24.1,2 
COMPS,ioos:station:USF.COMPS:C10:1,2012-04-22T08:00:00Z,27.1690,-82.9260,-1.0,24.1,2 
COMPS,ioos:station:USF.COMPS:C10:1,2012-04-22T22:00:00Z,27.1690,-82.9260,-1.0,24.3,2 
COMPS,ioos:station:USF.COMPS:C10:1,2012-04-22T23:00:00Z,27.1690,-82.9260,-1.0,24.3,2 
COMPS,ioos:station:USF.COMPS:C10:1,2012-04-23T06:00:00Z,27.1690,-82.9260,-1.0,24.1,2 
COMPS,ioos:station:USF.COMPS:C10:1,2012-04-23T08:00:00Z,27.1690,-82.9260,-1.0,24.0,2 
COMPS,ioos:station:USF.COMPS:C10:1,2012-04-23T14:00:00Z,27.1690,-82.9260,-1.0,23.9,2 
COMPS,ioos:station:USF.COMPS:C10:1,2012-04-23T22:00:00Z,27.1690,-82.9260,-1.0,23.9,2 
COMPS,ioos:station:USF.COMPS:C10:1,2012-04-24T02:00:00Z,27.1690,-82.9260,-1.0,23.8,2 
COMPS,ioos:station:USF.COMPS:C10:1,2012-04-24T07:00:00Z,27.1690,-82.9260,-1.0,23.6,2 
COMPS,ioos:station:USF.COMPS:C10:1,2012-04-25T02:00:00Z,27.1690,-82.9260,-1.0,23.5,2 
COMPS,ioos:station:USF.COMPS:C10:1,2012-04-25T03:00:00Z,27.1690,-82.9260,-1.0,23.5,2 
COMPS,ioos:station:USF.COMPS:C10:1,2012-04-25T05:00:00Z,27.1690,-82.9260,-1.0,23.5,2 
COMPS,ioos:station:USF.COMPS:C10:1,2012-04-25T09:00:00Z,27.1690,-82.9260,-1.0,23.4,2 
COMPS,ioos:station:USF.COMPS:C10:1,2012-04-25T19:00:00Z,27.1690,-82.9260,-1.0,24.4,2 
COMPS,ioos:station:USF.COMPS:C10:1,2012-04-25T20:00:00Z,27.1690,-82.9260,-1.0,24.4,2 
COMPS,ioos:station:USF.COMPS:C10:1,2012-04-26T17:00:00Z,27.1690,-82.9260,-1.0,23.7,2 
COMPS,ioos:station:USF.COMPS:C10:1,2012-04-26T19:00:00Z,27.1690,-82.9260,-1.0,24.1,2 
COMPS,ioos:station:USF.COMPS:C10:1,2012-04-26T20:00:00Z,27.1690,-82.9260,-1.0,24.5,2 
COMPS,ioos:station:USF.COMPS:C10:1,2012-04-26T21:00:00Z,27.1690,-82.9260,-1.0,24.6,2 
COMPS,ioos:station:USF.COMPS:C10:1,2012-04-26T22:00:00Z,27.1690,-82.9260,-1.0,24.4,2 
COMPS,ioos:station:USF.COMPS:C10:1,2012-04-26T23:00:00Z,27.1690,-82.9260,-1.0,24.2,2 
COMPS,ioos:station:USF.COMPS:C10:1,2012-04-27T01:00:00Z,27.1690,-82.9260,-1.0,23.9,2 
COMPS,ioos:station:USF.COMPS:C10:1,2012-04-27T02:00:00Z,27.1690,-82.9260,-1.0,23.8,2 
COMPS,ioos:station:USF.COMPS:C10:1,2012-04-27T06:00:00Z,27.1690,-82.9260,-1.0,23.7,2 
COMPS,ioos:station:USF.COMPS:C10:1,2012-04-27T07:00:00Z,27.1690,-82.9260,-1.0,23.6,2 
COMPS,ioos:station:USF.COMPS:C10:1,2012-04-27T09:00:00Z,27.1690,-82.9260,-1.0,23.6,2 
COMPS,ioos:station:USF.COMPS:C10:1,2012-04-27T10:00:00Z,27.1690,-82.9260,-1.0,23.6,2 
COMPS,ioos:station:USF.COMPS:C10:1,2012-04-27T12:00:00Z,27.1690,-82.9260,-1.0,23.5,2 
COMPS,ioos:station:USF.COMPS:C10:1,2012-04-27T13:00:00Z,27.1690,-82.9260,-1.0,23.5,2 
COMPS,ioos:station:USF.COMPS:C10:1,2012-04-27T14:00:00Z,27.1690,-82.9260,-1.0,23.6,2 
COMPS,ioos:station:USF.COMPS:C10:1,2012-04-27T15:00:00Z,27.1690,-82.9260,-1.0,23.6,2 
COMPS,ioos:station:USF.COMPS:C10:1,2012-04-27T17:00:00Z,27.1690,-82.9260,-1.0,23.9,2 
COMPS,ioos:station:USF.COMPS:C10:1,2012-04-27T18:00:00Z,27.1690,-82.9260,-1.0,24.2,2 
COMPS,ioos:station:USF.COMPS:C10:1,2012-04-27T19:00:00Z,27.1690,-82.9260,-1.0,24.7,2 
COMPS,ioos:station:USF.COMPS:C10:1,2012-04-27T20:00:00Z,27.1690,-82.9260,-1.0,24.8,2 
COMPS,ioos:station:USF.COMPS:C10:1,2012-04-27T21:00:00Z,27.1690,-82.9260,-1.0,25.1,2 
COMPS,ioos:station:USF.COMPS:C10:1,2012-04-27T22:00:00Z,27.1690,-82.9260,-1.0,25.2,2 
COMPS,ioos:station:USF.COMPS:C10:1,2012-04-27T23:00:00Z,27.1690,-82.9260,-1.0,24.9,2 
COMPS,ioos:station:USF.COMPS:C10:1,2012-04-28T00:00:00Z,27.1690,-82.9260,-1.0,24.6,2 
COMPS,ioos:station:USF.COMPS:C10:1,2012-04-28T01:00:00Z,27.1690,-82.9260,-1.0,24.4,2 
COMPS,ioos:station:USF.COMPS:C10:1,2012-04-28T02:00:00Z,27.1690,-82.9260,-1.0,24.2,2 
COMPS,ioos:station:USF.COMPS:C10:1,2012-04-28T03:00:00Z,27.1690,-82.9260,-1.0,24.1,2 
COMPS,ioos:station:USF.COMPS:C10:1,2012-04-28T04:00:00Z,27.1690,-82.9260,-1.0,24.0,2 
COMPS,ioos:station:USF.COMPS:C10:1,2012-04-28T05:00:00Z,27.1690,-82.9260,-1.0,24.0,2 
COMPS,ioos:station:USF.COMPS:C10:1,2012-04-28T06:00:00Z,27.1690,-82.9260,-1.0,23.9,2 
COMPS,ioos:station:USF.COMPS:C10:1,2012-04-28T07:00:00Z,27.1690,-82.9260,-1.0,23.8,2 
COMPS,ioos:station:USF.COMPS:C10:1,2012-04-28T08:00:00Z,27.1690,-82.9260,-1.0,23.8,2 
COMPS,ioos:station:USF.COMPS:C10:1,2012-04-28T10:00:00Z,27.1690,-82.9260,-1.0,23.7,2 
COMPS,ioos:station:USF.COMPS:C10:1,2012-04-28T11:00:00Z,27.1690,-82.9260,-1.0,23.7,2 
COMPS,ioos:station:USF.COMPS:C10:1,2012-04-28T12:00:00Z,27.1690,-82.9260,-1.0,23.7,2 
COMPS,ioos:station:USF.COMPS:C10:1,2012-04-28T14:00:00Z,27.1690,-82.9260,-1.0,23.7,2 
COMPS,ioos:station:USF.COMPS:C10:1,2012-04-28T15:00:00Z,27.1690,-82.9260,-1.0,23.8,2 
COMPS,ioos:station:USF.COMPS:C10:1,2012-04-28T16:00:00Z,27.1690,-82.9260,-1.0,24.1,2 
COMPS,ioos:station:USF.COMPS:C10:1,2012-04-28T17:00:00Z,27.1690,-82.9260,-1.0,24.4,2 
COMPS,ioos:station:USF.COMPS:C10:1,2012-04-28T18:00:00Z,27.1690,-82.9260,-1.0,24.7,2 
COMPS,ioos:station:USF.COMPS:C10:1,2012-04-28T19:00:00Z,27.1690,-82.9260,-1.0,25.2,2 
COMPS,ioos:station:USF.COMPS:C10:1,2012-04-28T20:00:00Z,27.1690,-82.9260,-1.0,25.6,2 
COMPS,ioos:station:USF.COMPS:C10:1,2012-04-28T21:00:00Z,27.1690,-82.9260,-1.0,25.6,2 
COMPS,ioos:station:USF.COMPS:C10:1,2012-04-28T22:00:00Z,27.1690,-82.9260,-1.0,25.3,2 
COMPS,ioos:station:USF.COMPS:C10:1,2012-04-28T23:00:00Z,27.1690,-82.9260,-1.0,25.0,2 
COMPS,ioos:station:USF.COMPS:C10:1,2012-04-29T01:00:00Z,27.1690,-82.9260,-1.0,24.7,2 
COMPS,ioos:station:USF.COMPS:C10:1,2012-04-29T02:00:00Z,27.1690,-82.9260,-1.0,24.7,2 
COMPS,ioos:station:USF.COMPS:C10:1,2012-04-29T03:00:00Z,27.1690,-82.9260,-1.0,24.6,2 
COMPS,ioos:station:USF.COMPS:C10:1,2012-04-29T04:00:00Z,27.1690,-82.9260,-1.0,24.6,2 
COMPS,ioos:station:USF.COMPS:C10:1,2012-04-29T05:00:00Z,27.1690,-82.9260,-1.0,24.6,2 
COMPS,ioos:station:USF.COMPS:C10:1,2012-04-29T06:00:00Z,27.1690,-82.9260,-1.0,24.6,2 
COMPS,ioos:station:USF.COMPS:C10:1,2012-04-29T07:00:00Z,27.1690,-82.9260,-1.0,24.6,2 
COMPS,ioos:station:USF.COMPS:C10:1,2012-04-29T08:00:00Z,27.1690,-82.9260,-1.0,24.5,2 
COMPS,ioos:station:USF.COMPS:C10:1,2012-04-29T09:00:00Z,27.1690,-82.9260,-1.0,24.4,2 
COMPS,ioos:station:USF.COMPS:C10:1,2012-04-29T10:00:00Z,27.1690,-82.9260,-1.0,24.3,2 
COMPS,ioos:station:USF.COMPS:C10:1,2012-04-29T11:00:00Z,27.1690,-82.9260,-1.0,24.2,2 
COMPS,ioos:station:USF.COMPS:C10:1,2012-04-29T12:00:00Z,27.1690,-82.9260,-1.0,24.1,2 
COMPS,ioos:station:USF.COMPS:C10:1,2012-04-29T13:00:00Z,27.1690,-82.9260,-1.0,24.1,2 
COMPS,ioos:station:USF.COMPS:C10:1,2012-04-29T14:00:00Z,27.1690,-82.9260,-1.0,24.1,2 
COMPS,ioos:station:USF.COMPS:C10:1,2012-04-29T15:00:00Z,27.1690,-82.9260,-1.0,24.1,2 
COMPS,ioos:station:USF.COMPS:C10:1,2012-04-29T16:00:00Z,27.1690,-82.9260,-1.0,24.2,2 
COMPS,ioos:station:USF.COMPS:C10:1,2012-04-29T17:00:00Z,27.1690,-82.9260,-1.0,24.4,2 
COMPS,ioos:station:USF.COMPS:C10:1,2012-04-29T18:00:00Z,27.1690,-82.9260,-1.0,24.7,2 
COMPS,ioos:station:USF.COMPS:C10:1,2012-04-29T19:00:00Z,27.1690,-82.9260,-1.0,24.8,2 
COMPS,ioos:station:USF.COMPS:C10:1,2012-04-29T20:00:00Z,27.1690,-82.9260,-1.0,24.8,2 
COMPS,ioos:station:USF.COMPS:C10:1,2012-04-29T21:00:00Z,27.1690,-82.9260,-1.0,24.7,2 
COMPS,ioos:station:USF.COMPS:C10:1,2012-04-29T22:00:00Z,27.1690,-82.9260,-1.0,24.8,2 
COMPS,ioos:station:USF.COMPS:C10:1,2012-04-29T23:00:00Z,27.1690,-82.9260,-1.0,24.8,2 
COMPS,ioos:station:USF.COMPS:C10:1,2012-04-30T01:00:00Z,27.1690,-82.9260,-1.0,24.7,2 
COMPS,ioos:station:USF.COMPS:C10:1,2012-04-30T02:00:00Z,27.1690,-82.9260,-1.0,24.5,2 
COMPS,ioos:station:USF.COMPS:C10:1,2012-04-30T03:00:00Z,27.1690,-82.9260,-1.0,24.4,2 
COMPS,ioos:station:USF.COMPS:C10:1,2012-04-30T05:00:00Z,27.1690,-82.9260,-1.0,24.3,2 
COMPS,ioos:station:USF.COMPS:C10:1,2012-04-30T06:00:00Z,27.1690,-82.9260,-1.0,24.2,2 
COMPS,ioos:station:USF.COMPS:C10:1,2012-04-30T07:00:00Z,27.1690,-82.9260,-1.0,24.2,2 
COMPS,ioos:station:USF.COMPS:C10:1,2012-04-30T08:00:00Z,27.1690,-82.9260,-1.0,24.2,2 
COMPS,ioos:station:USF.COMPS:C10:1,2012-04-30T09:00:00Z,27.1690,-82.9260,-1.0,24.1,2 
COMPS,ioos:station:USF.COMPS:C10:1,2012-04-30T10:00:00Z,27.1690,-82.9260,-1.0,24.1,2 
COMPS,ioos:station:USF.COMPS:C10:1,2012-04-30T11:00:00Z,27.1690,-82.9260,-1.0,24.0,2 
COMPS,ioos:station:USF.COMPS:C10:1,2012-04-30T12:00:00Z,27.1690,-82.9260,-1.0,24.0,2 
COMPS,ioos:station:USF.COMPS:C10:1,2012-04-30T13:00:00Z,27.1690,-82.9260,-1.0,24.0,2 
COMPS,ioos:station:USF.COMPS:C10:1,2012-04-30T14:00:00Z,27.1690,-82.9260,-1.0,24.0,2 
COMPS,ioos:station:USF.COMPS:C10:1,2012-04-30T15:00:00Z,27.1690,-82.9260,-1.0,24.0,2 
COMPS,ioos:station:USF.COMPS:C10:1,2012-04-30T16:00:00Z,27.1690,-82.9260,-1.0,24.1,2 
COMPS,ioos:station:USF.COMPS:C10:1,2012-04-30T17:00:00Z,27.1690,-82.9260,-1.0,24.1,2 
COMPS,ioos:station:USF.COMPS:C10:1,2012-04-30T18:00:00Z,27.1690,-82.9260,-1.0,24.2,2 
COMPS,ioos:station:USF.COMPS:C10:1,2012-04-30T19:00:00Z,27.1690,-82.9260,-1.0,24.2,2 
COMPS,ioos:station:USF.COMPS:C10:1,2012-04-30T20:00:00Z,27.1690,-82.9260,-1.0,24.3,2 
COMPS,ioos:station:USF.COMPS:C10:1,2012-04-30T22:00:00Z,27.1690,-82.9260,-1.0,24.3,2 
 
DISCLAIMER: The Gulf of Mexico Coastal and Ocean Observing (GCOOS) Data Portal aggregates data from the regional data providers for the convenience of all data users. Data published on this website should not be used for navigation or certain other uses as we cannot guarantee data accuracy or availability. The data and delivery services are provided 'as is' without warranty of any kind. Data Source: Gulf of Mexico Coastal Ocean Observing System Data Portal (http://data.gcoos.org/) 
